Location: Philomena
(55.1756°N, 111.6233°W)
Time: 10:47:21
(UTC+00:00)

PCSat - Pass Details

Date: 06 December 2023
Orbit: 784 x 791 km, 67.0° (Epoch: 23 February)

Event Time Altitude Azimuth Distance (km) Brightness Sun altitude
Exits shadow 13:38:45 23° 274° (W) 1,626 10.6 -15.4°
Maximum altitude 13:41:34 40° 329° (NNW) 1,160 10.1 -15.0°
Drops below altitude 10° 13:46:40 10° 38° (NE) 2,365 12.3 -14.3°
Sets 13:49:15 0° 46° (NE) 3,298 13.2 -14.0°
